Theta_e
299 298 298 297 296 296 296 295 296 296 295 294 293 294 294 294 294 293 293 293 292 292 292 291 291 291 290 290 290 291 290 290 290 290 290 290 289 289 289 288 288 288 287 287 287 286 286 287 287 287 287 286 286 286 287 286 286 286 286 286 285 285 286 287 287 287 285 286 289 289 290 291 292 292 293 295 296 297 298 297 298 299 299 300 300
298 297 296 297 296 296 295 294 295 294 293 293 293 293 294 293 293 293 293 292 292 292 292 292 292 291 291 290 290 290 289 289 289 290 289 290 289 289 289 288 288 287 287 287 286 286 286 286 286 286 286 286 286 286 286 286 285 286 286 284 286 285 284 286 287 286 285 284 283 284 286 290 292 293 293 295 296 297 298 298 298 298 298 300 301
296 296 296 295 296 295 295 294 294 294 294 292 293 293 293 293 293 293 293 292 292 292 292 291 291 291 290 290 289 289 290 289 289 289 289 288 289 289 288 288 287 287 287 286 286 286 285 285 285 286 286 286 285 285 285 285 285 285 285 284 283 285 285 287 286 287 283 284 284 283 284 284 287 290 294 295 297 298 298 298 297 298 298 300 300
295 295 294 294 295 294 294 293 293 294 293 292 292 292 293 293 292 293 292 292 292 292 292 292 291 291 290 290 289 289 288 289 289 288 288 288 287 288 288 287 287 286 286 286 285 285 285 285 285 285 285 285 284 284 284 284 285 284 284 284 283 282 283 284 286 286 285 284 280 283 282 283 281 287 289 291 293 292 293 293 294 295 296 298 298
296 296 295 294 293 293 293 293 293 292 293 292 292 292 292 292 292 292 292 292 292 292 291 291 290 289 289 289 288 287 287 287 287 287 287 287 287 287 287 287 286 286 286 286 285 285 285 285 285 284 284 284 284 284 284 284 284 284 284 283 283 282 281 282 283 285 284 285 283 281 281 282 283 284 285 284 290 291 293 294 295 295 296 297 297
298 296 295 294 293 293 293 293 292 292 292 292 293 292 292 292 293 292 292 291 291 291 291 290 289 288 287 286 286 286 286 286 286 287 287 287 286 287 287 286 286 285 285 285 285 284 284 284 284 284 284 284 284 284 283 283 283 283 283 283 282 283 281 280 281 284 284 284 284 284 283 280 280 282 282 279 288 289 289 290 292 293 294 294 295
298 298 296 294 294 293 293 292 292 291 292 293 293 293 292 293 292 292 291 291 291 291 291 290 289 288 288 287 288 287 287 288 288 287 286 286 286 285 286 286 286 285 285 285 284 284 284 284 284 284 283 283 283 283 282 283 283 283 283 282 282 282 282 279 280 281 283 283 283 283 283 284 284 281 279 281 279 284 288 289 290 292 292 293 293
298 297 296 296 295 294 293 293 292 292 292 293 292 292 292 292 292 291 291 291 291 291 290 290 288 288 287 287 286 286 286 286 287 285 286 285 284 285 285 285 285 285 284 284 284 284 283 283 283 283 283 283 282 282 282 282 283 283 283 282 282 282 281 280 280 281 280 281 283 282 283 283 283 283 283 280 279 278 280 287 289 289 290 291 292
298 297 296 295 295 294 294 293 293 292 292 292 292 292 292 292 292 292 291 290 290 290 289 289 289 288 287 287 286 286 286 286 286 285 285 285 284 284 284 284 284 284 284 283 283 283 283 283 283 282 282 282 282 282 282 282 282 281 281 281 281 281 281 281 280 280 280 280 281 281 282 282 282 283 283 282 280 279 279 281 282 287 288 289 290
298 298 297 296 296 295 295 295 293 292 292 293 292 292 292 292 291 291 290 290 290 289 289 289 288 287 286 286 285 286 286 285 285 284 284 284 283 283 283 283 283 283 283 283 283 283 283 282 282 282 282 282 281 282 282 281 281 281 281 281 281 280 281 280 280 280 280 280 280 280 279 279 280 280 280 280 280 280 277 278 281 281 281 285 289
298 297 297 297 297 296 295 293 293 292 292 292 291 291 292 291 291 290 290 290 289 289 288 288 287 287 286 286 285 285 285 284 283 283 283 283 282 282 282 283 283 282 282 282 282 282 282 282 281 282 282 281 281 281 281 281 281 281 281 281 280 280 280 280 280 280 280 279 280 279 279 279 278 278 279 280 279 278 278 278 280 282 283 283 286
297 296 296 296 295 295 294 293 292 291 291 290 291 291 291 291 291 289 289 289 289 288 288 287 287 286 286 286 285 285 284 283 282 282 283 282 282 281 282 282 281 282 282 281 281 282 281 281 281 281 281 281 281 281 281 281 281 280 280 280 280 280 280 279 279 278 279 279 279 279 279 279 279 278 279 279 279 278 279 278 279 280 281 283 285
296 295 295 295 294 293 293 293 292 290 289 289 290 290 291 290 290 289 288 288 288 288 287 287 286 286 285 285 284 284 283 283 282 282 282 281 281 281 281 280 281 281 281 281 281 281 281 280 280 280 280 281 281 280 280 280 280 280 280 279 279 279 279 279 278 278 278 278 278 279 279 279 279 280 280 279 279 279 278 276 278 280 278 279 282
296 295 295 295 294 294 293 292 291 290 289 289 290 290 290 290 289 288 288 288 287 287 286 286 286 285 285 284 284 283 282 282 282 281 281 281 281 280 280 280 280 280 280 280 281 280 280 280 280 280 280 280 280 280 280 280 280 279 279 279 279 279 279 279 278 278 278 278 279 278 278 278 278 279 279 279 278 277 276 276 277 278 278 278 280
295 295 295 295 294 294 293 292 291 290 289 289 289 289 290 289 289 288 288 287 287 286 286 285 285 285 284 284 283 283 282 281 281 281 281 280 280 280 280 279 279 279 279 280 280 279 279 279 280 279 279 279 279 279 279 279 279 279 278 278 278 278 278 278 278 278 277 277 278 277 277 278 278 278 278 278 278 278 278 278 276 274 275 277 277
294 294 294 294 294 294 293 292 291 290 289 289 289 289 289 289 289 288 288 287 286 285 285 285 284 284 283 282 282 281 281 281 281 281 280 280 279 279 278 279 279 279 279 279 279 279 279 279 279 279 279 279 279 278 278 278 278 278 277 277 277 278 277 277 277 277 277 277 277 277 277 277 278 278 278 278 279 279 278 278 276 275 273 271 275
294 294 294 294 293 293 293 292 291 290 289 289 289 289 289 289 288 288 287 287 286 285 285 284 284 283 282 281 281 280 280 280 280 279 279 279 279 278 278 278 279 278 278 279 278 278 278 278 278 278 278 278 278 278 278 278 277 277 277 277 276 277 277 277 277 277 277 277 277 277 277 277 277 279 278 278 278 277 277 277 277 276 275 273 273
296 294 294 294 293 293 292 292 291 290 289 289 289 289 289 289 288 287 287 285 285 284 284 283 282 282 281 281 280 280 279 279 279 278 278 278 278 278 278 278 278 278 278 278 278 278 278 277 277 277 277 277 277 277 277 277 277 276 276 276 276 277 276 276 277 277 276 277 277 277 279 277 278 277 276 276 276 276 276 276 276 277 277 274 274
294 293 292 292 292 292 292 291 291 290 290 289 289 289 289 289 288 287 286 285 285 284 284 283 282 281 281 280 280 279 279 278 278 278 278 277 277 277 277 277 278 278 277 278 277 277 277 277 276 276 276 276 276 276 276 276 276 275 275 275 275 276 275 275 276 276 276 276 276 276 276 275 276 275 275 275 275 275 275 275 275 276 275 275 274
295 294 293 292 292 291 291 290 289 289 289 289 288 288 288 288 287 287 286 285 284 283 283 281 281 280 280 279 279 278 278 278 277 277 277 277 277 277 277 276 277 277 277 277 276 276 276 275 275 275 275 275 275 275 275 275 274 274 274 274 274 274 274 274 274 275 275 275 275 274 274 274 274 274 274 274 274 274 275 274 274 274 274 274 274
297 296 294 292 292 291 290 290 289 289 289 288 288 287 287 287 286 286 285 284 283 282 282 281 280 280 279 278 278 277 277 277 276 276 276 276 276 276 276 277 276 276 276 276 275 275 275 274 274 274 274 274 273 273 274 274 273 273 273 273 273 273 273 273 273 273 274 275 274 273 273 273 274 273 273 273 274 274 274 274 274 274 273 274 273
297 296 295 293 291 290 289 288 288 287 287 287 287 287 286 286 286 285 284 283 282 281 281 280 280 279 278 277 277 277 276 276 275 275 275 275 276 276 276 275 275 275 275 275 274 274 274 273 273 273 273 273 273 273 273 273 272 272 272 272 272 272 272 272 272 272 275 274 273 272 272 273 273 273 273 273 273 273 273 273 273 273 273 274 276
297 295 293 291 290 289 288 287 286 286 286 286 286 286 285 285 285 284 283 282 282 281 280 279 278 277 277 276 276 275 275 275 274 275 275 275 275 275 275 274 274 274 275 274 273 273 273 272 272 272 272 272 272 272 272 272 271 271 271 271 272 271 271 271 271 274 273 273 272 272 272 272 273 272 272 272 273 273 273 273 273 273 273 273 274
294 293 291 290 288 288 287 286 286 285 285 285 285 285 285 284 284 283 282 282 281 280 279 278 277 276 276 275 275 274 274 274 274 274 274 274 274 274 274 274 274 274 273 273 273 272 272 271 271 271 271 271 271 271 271 272 271 271 271 271 271 271 271 271 271 272 271 271 271 271 271 272 272 271 271 272 272 273 273 273 273 274 274 274 274
292 290 289 288 286 286 286 286 285 285 285 285 284 284 284 283 283 282 282 280 279 278 277 276 276 275 275 274 274 274 273 273 273 274 273 273 273 274 274 273 273 272 272 272 272 272 271 271 270 270 270 270 271 271 271 271 271 271 271 271 271 271 271 272 271 271 271 270 270 271 271 271 271 271 271 272 272 272 272 273 273 274 274 275 275
291 290 288 287 286 286 285 285 285 285 284 284 284 284 283 283 282 282 280 279 277 277 276 275 275 274 274 273 273 273 273 273 273 273 273 273 273 273 273 272 272 271 271 271 270 270 270 270 270 270 270 270 271 271 271 271 271 271 271 271 271 271 272 271 270 270 270 270 270 271 271 271 271 271 271 272 273 273 273 273 273 273 273 274 273
290 289 288 287 286 285 285 285 285 284 284 284 283 283 282 281 280 280 279 278 277 276 275 275 274 274 273 273 273 273 273 273 273 273 273 273 272 272 271 271 271 270 269 269 269 269 269 270 270 270 270 270 270 271 271 271 271 271 271 271 270 271 270 270 270 270 270 271 271 271 271 272 272 272 272 272 272 273 273 273 273 273 274 274 273
290 288 287 286 286 286 285 285 284 284 284 283 283 282 281 280 279 278 278 276 275 275 274 274 273 273 273 273 273 273 273 272 272 272 272 271 271 271 270 270 269 269 268 268 268 268 269 269 269 270 270 271 271 271 271 271 271 270 270 271 270 270 270 271 271 271 272 271 271 271 272 272 272 273 273 273 273 272 274 274 274 274 274 273 273
289 288 288 287 286 286 285 285 284 284 283 282 282 281 281 280 279 277 276 275 275 274 273 273 273 273 273 273 273 272 272 272 271 271 270 270 270 269 269 268 268 268 268 268 268 268 268 269 269 270 270 270 270 270 270 270 270 270 271 271 271 271 271 271 271 271 272 272 273 273 273 273 273 275 276 276 276 276 274 273 274 274 274 273 273
290 289 289 288 287 287 285 285 284 283 283 282 281 280 279 278 277 276 275 275 274 273 273 272 272 272 272 272 272 271 271 271 270 270 269 269 268 268 267 267 267 267 267 268 267 268 268 269 269 270 270 269 269 270 270 272 273 272 272 272 272 271 271 271 271 271 272 273 273 274 274 277 277 276 276 277 278 279 279 277 275 275 274 274 274
293 291 290 289 288 287 285 284 284 283 283 281 281 280 279 278 276 275 274 274 273 272 272 272 272 272 272 271 271 270 270 269 269 268 268 267 266 266 266 266 266 266 266 267 267 268 268 269 269 269 268 269 269 269 271 274 275 276 273 272 272 272 273 273 273 273 273 274 274 275 275 276 277 277 276 278 279 279 279 279 280 280 279 276 275
297 294 291 289 288 286 285 284 284 283 283 281 280 279 278 276 275 274 273 273 272 272 271 271 272 271 271 270 270 269 268 268 267 266 266 265 265 264 264 265 265 265 266 267 267 268 268 268 268 268 268 268 268 270 273 274 275 275 276 273 273 273 273 274 274 274 274 274 274 275 275 276 276 276 276 276 277 278 279 280 280 280 281 281 281
297 296 292 290 288 287 286 285 284 283 282 281 280 278 277 276 274 274 272 271 271 271 271 270 270 270 269 269 269 268 267 266 266 265 264 264 263 263 263 263 264 265 266 266 267 267 267 267 267 267 267 268 268 270 272 274 275 276 276 276 274 274 273 273 274 274 274 273 274 274 274 275 276 278 277 277 277 277 279 280 280 280 280 281 281
298 297 295 291 289 287 286 285 285 284 283 281 279 278 277 275 274 272 271 271 270 270 270 269 269 268 268 268 267 266 265 265 264 263 263 263 263 263 263 264 264 265 265 265 266 266 266 266 266 266 266 267 267 269 272 274 275 276 277 277 274 274 273 273 273 273 273 273 273 273 273 274 275 275 276 276 277 277 277 277 277 277 277 278 280
297 296 294 291 289 287 286 285 284 283 281 279 278 277 275 273 272 271 271 270 269 269 268 268 267 268 267 266 266 265 264 264 263 263 262 262 262 263 263 264 264 265 265 264 265 265 265 265 265 265 265 266 267 271 273 274 275 276 277 277 274 273 273 273 273 273 273 273 273 273 273 273 274 275 276 276 276 277 277 277 276 276 277 277 277
297 296 294 291 289 287 286 285 284 281 279 278 277 275 273 272 271 270 269 268 268 267 267 267 267 266 265 265 264 264 263 263 263 262 262 262 262 262 262 263 264 264 265 265 265 265 264 264 265 265 265 265 267 271 273 274 275 276 277 274 273 273 272 272 272 273 273 273 274 273 273 273 274 274 277 279 279 278 277 276 276 276 276 276 277
298 297 295 293 290 287 286 284 282 280 277 277 275 273 272 269 268 268 267 267 267 266 266 266 265 265 264 265 264 263 262 261 262 261 261 261 262 262 263 264 263 263 264 263 263 264 264 264 264 264 264 265 266 269 273 274 275 276 275 273 273 272 272 272 272 273 273 273 274 274 274 274 274 274 277 279 280 280 277 277 276 276 276 276 276
296 293 292 290 288 286 284 282 279 277 276 274 272 271 269 268 267 267 266 266 265 265 265 264 264 264 264 263 263 262 261 261 261 261 261 261 262 262 263 263 262 262 262 263 263 263 264 264 264 264 265 265 266 270 273 274 275 276 275 272 272 272 271 272 272 273 273 274 274 276 276 275 274 275 278 280 280 279 277 277 276 276 276 275 276
294 291 288 286 286 284 281 279 277 274 273 272 271 270 268 267 267 266 266 266 265 265 264 264 264 264 263 262 262 261 261 261 260 261 261 260 261 261 262 262 262 262 262 263 263 263 263 264 264 265 267 267 267 269 272 274 275 276 274 272 272 272 271 271 272 272 273 273 273 275 276 276 276 277 279 280 281 280 277 277 277 276 275 275 276
287 288 287 284 281 278 277 276 275 274 272 271 270 269 268 267 266 266 265 265 266 265 265 264 263 262 262 261 261 260 260 259 260 260 260 260 261 261 262 261 261 262 262 263 263 263 262 263 265 266 267 267 268 269 270 274 275 275 276 273 273 271 271 271 272 272 272 272 273 273 274 277 278 279 279 280 281 281 279 278 278 276 275 275 277
284 284 283 279 278 278 276 276 275 272 270 270 269 268 267 267 266 265 265 266 266 265 263 263 262 261 260 260 260 259 259 259 260 259 260 260 261 261 261 260 260 261 261 261 261 262 263 264 266 267 267 268 269 269 270 273 274 275 276 275 272 272 272 272 271 271 271 271 271 272 273 276 278 278 279 280 280 281 281 279 279 278 277 278 279
282 281 279 277 276 276 275 273 271 269 268 268 268 267 267 266 265 265 266 266 264 263 262 261 261 260 259 259 259 259 259 258 259 259 259 260 261 260 260 260 261 261 260 260 261 262 263 264 266 267 268 268 269 271 269 272 273 275 275 276 273 273 273 272 271 270 270 271 271 272 272 274 277 278 278 279 280 281 281 279 279 282 282 282 279
277 276 277 276 275 274 273 271 269 268 268 268 268 267 266 265 265 266 265 263 262 261 260 260 260 259 258 258 258 258 258 258 258 259 258 259 260 259 259 259 259 260 260 260 262 263 264 264 265 267 268 268 268 269 271 270 273 275 276 276 276 275 276 273 270 269 270 270 271 272 272 275 277 278 279 279 280 281 280 279 282 283 283 283 282
277 277 276 275 274 273 270 268 267 267 267 268 268 267 266 265 266 265 262 261 260 260 259 259 258 257 257 257 257 257 258 258 258 258 258 258 258 258 259 260 260 260 261 261 263 263 264 264 265 266 267 268 268 268 270 272 272 274 276 276 276 276 276 272 271 270 270 270 270 271 273 277 278 278 279 280 281 281 279 281 282 283 283 282 281
276 275 275 274 273 270 268 266 267 266 266 267 268 267 266 266 265 262 261 260 259 258 258 257 257 257 256 257 257 257 257 258 258 258 258 259 258 258 259 260 260 261 262 261 262 263 263 265 265 265 266 267 267 268 268 270 273 274 275 275 275 275 275 275 270 270 271 271 274 276 276 276 276 277 278 281 280 280 281 281 282 283 282 281 280
276 274 273 273 271 268 266 265 265 266 266 267 268 268 266 266 262 261 261 259 258 257 257 256 256 256 256 256 256 257 257 258 258 259 258 259 259 259 260 260 261 261 261 261 262 263 264 264 264 265 265 266 266 267 268 269 271 272 273 274 274 274 273 273 273 271 273 274 274 274 274 274 274 274 274 277 277 278 280 281 282 283 282 281 280
275 274 272 270 268 266 265 264 264 265 265 266 267 267 267 263 261 261 260 258 257 256 256 255 255 256 256 256 257 258 258 257 257 258 259 259 259 260 260 260 261 261 261 262 263 264 264 264 264 264 265 265 265 266 267 269 270 270 270 271 270 269 271 272 270 270 271 269 269 270 270 273 273 274 274 275 278 280 280 281 282 282 281 281 281
275 273 271 269 267 266 264 264 263 264 265 265 265 266 263 261 261 260 257 256 256 257 256 255 256 256 257 257 258 257 258 259 258 258 259 260 260 260 260 261 261 261 261 262 263 264 264 264 264 264 264 265 265 266 267 268 269 270 270 270 269 268 268 268 268 269 269 268 267 269 270 269 269 269 270 271 272 274 278 281 281 282 282 282 282
272 271 269 268 267 266 265 264 264 264 264 264 264 262 261 261 260 257 256 256 257 256 255 255 256 257 257 258 258 258 259 259 258 257 258 260 259 260 261 261 263 263 264 264 264 265 265 265 265 264 264 264 265 265 267 272 271 273 270 269 268 268 268 268 270 272 268 267 266 266 266 267 266 266 267 267 268 270 271 272 275 280 282 282 282
272 270 269 268 268 266 265 264 264 263 263 263 262 260 260 260 258 257 257 257 256 255 255 256 256 257 258 258 258 257 257 258 258 258 258 258 259 262 262 262 263 266 267 268 268 266 266 266 265 266 266 265 265 267 272 273 273 273 273 273 272 272 272 270 271 271 268 265 265 265 265 265 265 265 265 266 266 267 268 269 271 273 275 279 282
270 268 267 267 267 266 265 264 263 263 262 261 260 259 259 258 257 257 257 256 256 256 256 256 256 257 258 258 258 258 258 258 258 258 258 258 259 260 263 265 265 266 266 267 268 268 268 269 267 266 267 270 271 272 272 273 273 272 273 272 272 271 271 272 271 266 263 263 263 263 264 265 265 265 265 265 266 266 267 267 268 270 272 274 276
Wind_Speed
9 12 13 16 16 14 12 12 12 13 14 15 15 15 15 14 13 13 11 11 9 9 8 8 7 5 4 5 4 4 4 4 4 4 4 4 3 4 5 5 5 5 5 5 5 5 5 6 6 6 6 5 5 5 5 7 6 7 7 7 8 9 7 6 7 8 11 13 10 12 13 13 16 16 16 14 14 13 11 11 11 11 11 11 11
7 10 13 13 13 14 12 11 13 16 16 17 17 17 16 16 15 13 11 11 10 10 8 7 6 6 5 5 5 4 4 4 4 4 4 4 4 5 5 6 6 6 5 5 5 6 6 6 6 7 6 5 5 6 6 6 7 6 6 8 6 7 8 7 7 8 8 9 15 17 14 10 11 13 14 14 13 11 10 11 11 12 13 12 11
11 14 13 14 15 16 13 13 13 17 17 18 17 16 16 15 14 13 11 10 9 9 8 7 6 5 5 4 4 3 3 2 2 3 3 4 5 5 6 6 6 6 6 6 5 6 6 7 7 6 6 5 5 5 5 6 5 7 7 7 9 7 8 6 6 4 8 9 10 12 13 18 13 7 10 9 7 8 9 11 12 13 14 13 12
16 16 16 15 15 15 14 14 14 15 15 15 16 18 14 13 14 13 11 10 9 9 8 6 6 5 5 3 3 2 2 2 4 5 6 6 7 7 6 6 6 6 6 6 6 6 7 7 7 6 6 5 5 5 6 6 6 6 6 7 7 10 7 7 5 6 6 7 9 6 13 11 18 7 8 12 11 17 17 16 14 13 14 14 13
14 14 15 15 16 18 19 16 14 16 15 16 16 16 11 16 14 13 11 11 9 9 10 8 7 6 5 4 3 3 4 5 5 6 6 6 6 6 7 6 6 6 6 7 7 7 7 7 7 7 6 5 5 5 5 6 6 6 7 7 7 8 11 9 7 6 8 6 7 9 9 9 11 15 16 19 8 9 7 9 11 13 13 13 12
14 15 16 17 17 16 16 16 16 15 16 15 14 15 13 14 14 13 10 10 10 11 11 9 8 7 7 6 6 6 6 6 7 6 5 5 5 4 5 6 6 6 6 7 7 7 7 7 7 7 6 5 4 5 6 6 6 7 6 7 8 8 9 11 10 6 7 9 11 11 10 12 15 17 13 16 10 11 15 13 12 13 13 14 14
12 11 13 15 17 17 18 18 19 18 17 13 13 14 16 14 14 14 12 10 10 11 12 9 8 7 8 7 6 6 5 5 4 3 3 4 4 5 5 5 6 7 7 6 6 6 7 7 7 6 6 6 5 5 6 7 7 7 6 7 7 7 8 11 11 10 8 9 10 13 15 15 14 12 14 14 19 14 7 10 12 12 14 16 16
11 14 15 16 17 19 21 20 18 18 15 13 13 13 17 16 15 15 12 11 10 11 12 10 9 8 8 7 6 6 6 5 4 4 4 4 5 6 5 5 5 6 6 7 6 6 7 7 7 6 6 6 6 6 7 7 7 7 7 8 8 8 9 10 11 9 9 10 7 10 12 14 16 17 18 15 17 19 22 13 11 13 12 14 16
12 12 15 16 18 19 18 17 17 16 14 15 15 14 14 14 14 14 13 12 11 13 12 11 9 9 8 7 7 6 6 5 4 4 4 4 6 6 6 6 6 7 7 7 7 7 7 7 6 6 6 6 6 6 7 8 9 9 9 8 9 9 8 9 10 11 10 11 9 11 11 12 12 13 14 14 14 16 22 18 18 15 14 15 14
10 13 13 14 15 15 16 14 15 15 12 14 13 12 13 12 14 15 15 12 11 14 12 12 11 9 9 9 9 7 6 5 5 5 5 5 6 6 6 6 6 6 6 7 7 7 7 7 6 7 7 7 6 7 8 9 9 10 10 10 10 11 10 10 12 12 11 12 11 11 11 11 12 12 13 13 16 17 19 21 18 18 20 17 13
9 10 11 11 11 12 13 16 15 13 11 14 13 14 13 13 14 16 16 12 13 14 13 13 12 10 9 10 10 9 8 6 5 6 6 5 5 5 5 6 6 6 6 6 7 7 7 6 6 6 7 7 7 8 8 8 8 9 9 11 12 12 11 12 13 14 12 13 13 12 13 12 12 13 12 12 13 14 14 18 19 18 18 20 18
7 8 9 10 10 12 12 15 16 15 13 15 14 14 14 13 14 17 16 15 13 13 13 13 12 11 10 10 10 9 8 6 7 7 6 6 6 6 5 6 6 6 6 6 6 6 6 6 6 7 7 7 7 7 8 8 8 9 9 9 10 11 12 12 13 14 16 13 14 13 14 13 14 14 13 13 14 16 15 19 17 17 19 18 17
7 8 8 10 12 13 15 16 15 16 17 19 17 15 14 14 17 18 18 16 14 14 14 14 12 11 10 10 9 8 8 8 7 6 5 5 5 5 6 6 6 6 6 6 6 7 6 6 5 5 6 6 7 8 9 10 10 10 10 11 12 12 11 12 12 14 14 14 13 13 13 14 15 14 14 14 14 15 16 18 18 15 19 20 16
6 7 8 10 11 12 13 15 15 14 17 17 17 16 14 13 17 19 17 16 14 14 14 13 12 11 10 9 8 7 8 7 7 6 6 5 5 6 6 6 6 6 7 7 6 6 6 6 6 7 7 8 9 10 10 10 11 11 11 12 13 12 13 15 15 16 16 18 15 15 15 15 15 14 15 14 15 15 16 17 17 16 17 20 18
5 7 9 10 11 12 12 14 13 14 16 16 16 16 14 15 16 19 17 17 16 15 13 13 11 11 10 9 8 7 7 6 6 5 5 5 5 6 6 6 6 6 7 7 7 7 7 6 7 8 8 9 10 10 10 10 11 11 12 13 13 12 14 14 14 16 16 17 18 16 15 15 15 14 13 15 15 16 17 17 16 19 18 17 18
6 7 8 9 10 11 11 12 13 12 16 15 16 16 16 17 17 19 18 17 15 15 13 13 11 10 10 10 9 7 6 5 5 5 5 5 6 6 7 7 7 6 7 7 8 7 7 7 7 8 9 10 10 11 11 11 11 12 12 12 14 11 13 16 15 16 18 19 19 17 16 17 16 15 16 18 18 18 19 20 18 19 18 20 18
7 8 8 9 9 11 11 13 12 13 15 18 20 19 20 17 17 19 17 15 16 15 14 12 11 10 10 9 8 8 7 7 6 6 6 5 6 7 7 7 7 7 7 6 7 7 6 6 7 8 9 10 11 11 12 12 12 12 12 14 14 13 14 15 15 15 16 16 16 18 18 17 16 17 19 18 18 18 17 18 17 17 17 18 18
8 8 8 9 10 12 12 12 15 16 18 18 19 16 16 15 18 18 16 18 16 15 13 12 12 11 10 10 9 8 7 7 6 6 5 6 6 6 7 7 7 6 6 6 6 6 6 7 7 9 9 10 11 11 11 12 12 12 13 14 14 14 14 14 14 14 15 15 17 18 19 18 19 18 17 18 18 18 17 18 17 19 18 20 19
7 8 8 9 11 12 13 14 14 15 15 15 15 14 14 13 15 16 17 17 15 12 12 10 10 8 7 8 8 7 6 6 5 5 5 6 7 7 7 7 7 7 7 6 6 6 6 6 7 9 9 10 10 11 11 11 12 12 13 13 13 13 13 14 13 13 15 16 18 19 19 18 18 18 18 18 18 18 17 18 17 18 18 19 21
8 8 9 10 11 12 13 14 15 16 15 13 15 12 16 15 15 14 13 13 13 13 12 11 10 8 8 7 7 6 6 6 6 6 6 7 6 6 7 7 7 6 7 6 5 5 6 7 8 8 10 10 11 11 11 12 12 12 12 12 12 13 15 15 15 14 13 16 18 19 19 17 17 16 17 17 17 17 17 17 17 17 18 19 18
8 9 9 10 11 11 11 10 10 10 10 10 12 15 16 13 15 15 17 15 14 13 12 10 9 9 9 8 7 7 7 6 6 6 7 6 6 6 6 6 6 7 6 6 5 6 7 7 8 9 10 10 11 11 10 11 12 13 12 14 15 14 16 15 14 16 16 17 19 19 19 19 18 18 17 16 16 17 17 17 16 16 18 19 18
9 9 9 8 8 8 8 8 9 10 12 14 12 13 14 15 15 14 13 13 14 12 11 10 9 8 9 8 7 6 6 6 6 6 6 6 5 5 5 5 7 6 5 5 6 6 6 8 9 10 10 11 11 12 11 11 12 13 14 11 12 14 15 15 15 17 19 16 17 19 19 19 18 19 18 17 17 17 18 17 18 17 17 17 17
8 7 5 5 6 7 9 11 12 14 13 14 13 15 15 16 15 14 14 14 12 12 10 9 9 9 8 7 7 6 6 6 6 6 6 5 5 5 5 5 6 5 4 5 6 7 8 9 10 10 10 11 11 11 11 11 12 13 14 14 13 14 15 16 18 20 19 18 18 18 19 17 15 17 18 18 17 18 17 20 21 18 19 19 18
7 3 4 5 5 6 8 11 12 13 14 15 14 14 14 14 14 14 15 14 13 11 10 10 9 8 8 8 7 6 6 6 6 5 5 5 5 5 4 5 5 4 5 5 6 8 8 9 10 11 11 11 11 11 12 12 13 13 14 15 14 15 15 16 18 19 18 17 18 19 18 18 17 18 18 17 17 18 17 17 20 19 19 21 18
7 8 7 5 7 10 12 12 12 13 12 13 14 15 15 15 14 14 13 13 12 11 11 10 10 9 9 8 8 7 7 6 6 5 5 5 5 4 4 5 4 5 5 6 7 7 8 9 9 10 11 12 12 12 12 13 12 13 14 15 15 15 17 19 19 18 18 18 18 19 20 19 18 19 18 18 17 21 18 17 18 17 17 17 16
9 7 7 11 12 10 10 12 12 13 14 14 14 15 14 14 14 13 13 13 12 10 10 10 9 9 8 8 8 7 7 6 6 5 5 5 4 4 4 4 4 5 6 6 7 7 7 9 10 11 12 12 12 12 13 13 13 14 14 15 15 16 18 18 19 18 17 17 19 19 20 19 20 19 19 18 19 20 19 19 20 19 20 17 18
10 9 8 7 8 13 14 13 13 13 14 13 15 15 14 14 14 12 12 12 12 11 10 10 9 9 8 8 8 7 6 6 5 5 3 3 3 4 5 4 4 5 6 7 8 9 8 9 11 11 12 12 13 12 12 13 14 14 15 15 16 18 19 17 18 20 20 19 20 21 21 20 21 20 20 20 20 20 19 22 20 20 19 19 18
7 8 11 14 14 13 14 15 14 14 13 13 13 14 15 15 15 13 12 11 10 11 10 10 9 8 8 8 7 7 6 5 4 4 4 3 3 4 4 4 4 5 6 7 8 9 9 9 10 11 11 11 12 12 13 13 13 13 14 17 18 18 18 19 19 19 19 20 20 22 21 22 21 22 20 21 20 19 18 20 19 19 18 19 17
12 13 13 13 13 14 15 14 14 14 15 16 13 14 13 12 12 12 12 11 11 11 10 10 9 8 8 8 7 6 5 5 4 4 4 4 4 4 4 4 4 5 6 7 8 9 10 11 11 11 12 11 11 11 10 10 12 16 16 18 19 19 20 20 21 19 21 20 21 20 21 22 23 28 31 28 27 25 18 18 20 19 17 18 18
14 15 15 14 14 13 13 14 14 16 17 16 15 15 15 15 14 13 13 12 12 11 11 10 9 9 8 7 7 6 5 5 4 4 4 4 4 4 4 4 5 6 7 7 9 9 10 10 11 11 11 10 10 9 12 19 21 18 19 18 18 19 20 19 19 21 19 21 19 22 19 31 32 32 32 34 33 34 35 27 21 21 19 18 17
15 14 13 14 13 11 11 14 16 17 18 17 16 15 14 14 13 13 13 13 11 11 10 10 10 9 8 7 6 6 5 5 4 4 4 4 5 4 3 4 5 6 7 8 8 9 9 9 10 11 11 10 10 10 19 22 25 27 21 19 20 19 18 19 19 18 20 18 21 19 21 24 26 29 29 37 35 34 34 35 37 35 30 23 17
13 14 13 13 12 13 15 17 17 17 17 16 16 15 15 14 14 14 13 12 11 11 11 10 9 9 8 8 6 6 5 5 4 4 5 5 4 4 3 4 5 6 7 7 9 9 9 9 9 10 11 11 12 16 22 24 26 27 25 20 18 17 18 17 18 18 18 18 19 18 19 17 19 21 22 23 27 33 33 33 35 34 34 36 33
15 12 13 13 14 15 17 16 14 15 16 18 17 15 16 15 15 13 12 12 12 11 10 10 9 8 8 7 6 6 5 5 4 4 4 4 4 3 3 5 6 6 6 8 8 9 9 9 9 10 11 12 13 18 23 26 27 28 28 25 17 19 18 20 18 20 21 21 19 19 19 18 17 26 23 21 23 23 29 33 33 34 34 35 34
11 12 12 11 10 11 13 16 17 17 16 15 15 16 13 13 13 13 13 12 12 11 10 9 9 9 8 7 7 6 5 5 4 4 5 5 3 3 4 5 5 6 6 7 8 9 9 9 9 11 12 12 14 18 25 27 27 29 29 25 19 19 19 19 20 20 20 21 21 20 20 19 18 20 20 21 21 23 22 22 21 21 21 26 31
12 10 9 10 12 12 12 12 12 14 14 14 13 12 13 12 12 12 10 12 10 10 9 9 9 8 8 7 7 6 6 5 5 5 5 4 2 3 4 5 4 5 6 6 7 8 8 8 10 11 11 13 12 22 26 28 27 28 29 27 18 18 18 19 20 21 21 21 21 20 21 21 20 20 18 21 22 21 20 18 18 19 20 21 21
9 11 10 10 11 13 14 14 11 13 13 14 15 14 14 12 10 10 10 9 10 9 9 9 8 8 8 7 7 7 6 6 6 6 5 2 2 4 4 4 5 5 5 6 6 7 8 10 10 11 12 14 14 23 25 26 27 27 30 20 17 18 18 18 20 21 22 21 20 20 20 21 21 21 24 30 28 22 19 19 17 18 19 19 19
10 8 11 10 9 11 11 10 12 13 14 15 13 13 12 12 11 9 10 10 9 9 9 9 9 9 8 8 7 7 6 6 6 5 4 2 2 4 4 3 4 5 5 6 6 7 7 9 11 11 12 13 14 19 23 25 26 28 24 16 17 15 17 20 19 21 22 22 21 21 20 20 21 21 26 30 31 29 21 19 19 18 16 16 16
9 5 5 6 7 7 9 12 13 13 13 12 13 13 13 12 11 11 10 10 9 9 9 9 9 9 8 8 7 7 7 7 6 5 3 2 3 3 4 3 4 5 5 6 6 7 8 9 11 12 12 14 15 18 23 24 26 27 25 18 16 16 18 16 17 19 18 20 22 30 27 23 22 22 28 31 32 27 20 20 20 19 17 15 16
8 9 8 8 9 12 13 13 15 15 12 14 16 15 14 12 12 12 11 10 10 10 10 10 9 9 8 8 7 7 7 6 6 4 3 2 4 4 3 3 4 4 5 5 5 7 9 10 11 12 17 17 15 16 22 23 26 27 23 18 18 17 15 16 18 19 20 19 20 21 28 26 25 27 33 32 33 28 21 19 19 17 17 16 18
5 5 7 8 10 14 13 14 17 17 16 18 17 15 13 13 12 12 11 11 11 10 9 8 9 9 8 7 6 7 6 6 5 4 3 3 3 3 3 3 4 4 4 4 5 7 10 11 11 12 12 13 14 15 17 25 26 27 27 20 15 15 18 21 19 19 20 20 20 19 21 26 29 31 31 32 31 32 23 18 15 16 15 18 16
8 8 9 10 11 13 18 19 14 16 16 14 15 15 14 12 13 12 11 10 9 9 10 9 9 8 8 7 6 6 6 5 4 4 3 3 3 2 2 3 4 3 4 5 6 8 9 10 11 12 12 12 12 15 17 24 26 27 28 26 17 18 18 19 19 19 19 20 19 18 17 23 30 31 32 32 32 32 30 21 16 14 16 17 15
6 9 13 9 8 7 7 8 9 13 12 12 13 18 14 13 12 13 11 10 10 10 10 9 9 9 8 7 7 6 5 4 4 3 3 4 3 2 2 3 3 3 5 6 8 8 9 10 11 11 10 11 13 18 17 22 26 27 28 31 21 19 21 20 20 19 19 18 19 19 18 24 32 33 33 33 34 32 33 21 19 26 27 27 18
12 9 12 16 12 13 12 12 10 11 11 12 20 25 17 13 14 14 11 11 10 10 10 9 9 8 7 7 6 7 5 4 3 3 4 3 3 3 3 3 2 3 4 7 8 8 10 11 10 9 9 10 12 13 20 19 24 27 29 29 31 25 31 22 19 20 20 19 18 20 22 31 35 38 38 37 35 35 29 21 28 28 26 27 23
6 9 14 17 14 10 11 10 12 9 9 11 24 24 14 14 14 11 11 10 10 10 10 10 8 7 7 6 6 6 5 4 4 3 3 3 1 2 1 0 1 2 3 6 7 8 10 9 10 10 10 10 12 12 16 23 22 29 28 29 30 31 32 22 21 17 17 18 18 19 23 37 38 35 36 35 33 31 23 28 29 28 24 22 13
12 12 13 16 20 18 13 13 12 13 10 9 11 20 17 16 12 12 13 12 11 10 10 9 9 8 7 7 6 5 5 4 4 3 3 3 2 1 0 0 1 2 3 6 7 9 9 9 10 11 11 12 12 13 13 16 25 26 29 30 31 33 32 31 21 17 17 17 24 34 35 34 34 34 35 30 22 25 28 28 29 29 24 11 10
7 8 12 14 13 17 15 15 13 13 12 11 11 13 26 14 12 10 12 11 12 11 10 10 8 8 8 7 8 6 5 5 3 3 3 2 2 1 1 0 1 2 3 5 8 8 8 9 10 11 12 13 13 13 13 13 15 20 23 28 31 30 31 31 27 21 27 29 29 30 33 31 28 27 22 15 11 10 18 22 24 22 12 11 10
20 14 15 15 20 16 15 15 16 14 12 11 10 6 8 12 12 11 11 11 11 11 11 9 9 8 8 9 8 6 6 5 4 3 2 2 2 2 2 1 0 2 4 6 7 8 9 9 10 11 12 12 13 13 13 14 14 15 15 18 20 20 26 26 19 17 18 17 21 22 20 25 22 28 25 24 20 16 14 12 10 11 10 10 10
9 14 20 21 20 17 18 15 15 16 13 11 9 12 9 9 11 11 11 11 11 12 10 10 10 8 7 8 6 8 7 5 4 3 3 3 3 3 2 1 0 1 4 6 7 8 9 9 9 10 11 12 12 11 12 15 18 18 17 17 18 18 18 16 17 17 17 17 17 19 20 15 15 14 15 13 13 13 11 9 9 9 9 10 10
15 15 23 22 19 18 17 17 13 11 12 11 11 10 10 11 11 11 12 13 11 10 9 10 8 7 7 6 6 6 4 5 4 3 2 2 2 3 2 2 2 2 4 6 7 8 8 8 9 10 11 11 12 12 13 21 20 25 23 20 18 19 18 16 20 28 19 14 13 14 14 14 14 15 14 14 14 13 12 12 13 10 9 10 9
10 12 14 12 11 17 16 15 13 14 15 15 16 11 11 10 10 11 12 12 12 10 9 8 7 6 6 6 6 5 5 5 4 3 2 0 4 7 4 2 1 5 8 11 9 7 8 8 8 8 9 10 11 13 25 29 28 28 29 30 28 29 27 23 27 31 19 12 13 13 13 14 15 14 14 14 14 13 14 13 11 13 12 11 10
13 16 14 19 17 21 18 25 18 15 13 12 11 11 11 10 11 12 11 12 12 10 8 7 6 5 6 6 5 4 4 4 4 4 3 3 1 2 6 5 2 4 8 10 9 10 13 13 10 7 8 15 18 22 25 26 27 27 28 29 29 30 28 28 29 21 14 12 14 14 14 15 14 13 13 14 13 13 13 12 12 12 10 11 12
Wind_Direction
207 202 192 191 189 186 186 186 185 182 182 182 181 184 186 180 178 183 181 179 179 180 183 185 182 183 187 201 205 196 206 211 223 225 222 233 230 243 246 249 258 264 264 266 274 277 275 278 274 271 269 271 268 274 284 288 291 290 296 294 295 299 298 298 304 309 305 300 294 289 289 279 268 266 261 259 257 257 261 267 267 267 264 264 266
184 194 198 189 187 185 183 186 182 184 188 184 186 186 186 183 184 182 180 182 188 186 181 183 186 186 181 184 193 196 202 212 222 207 216 225 237 241 246 250 257 262 266 270 272 271 275 275 273 270 273 275 276 278 279 284 287 294 301 302 295 299 298 305 305 315 306 321 323 319 302 276 265 259 250 250 254 258 260 264 269 273 274 274 274
205 215 201 194 187 184 186 189 193 192 186 187 186 183 186 183 185 184 183 182 188 185 180 185 180 177 181 170 184 197 215 250 258 251 241 242 240 240 243 253 259 259 260 264 268 268 269 271 271 276 275 282 288 290 291 290 293 295 301 303 310 300 289 292 295 296 300 312 300 290 304 327 308 270 251 249 258 264 271 274 274 273 275 276 278
216 206 201 192 188 188 188 191 191 189 187 186 186 186 183 185 184 184 182 184 185 184 185 177 172 166 178 183 183 225 234 207 237 241 239 239 242 239 238 248 254 260 261 261 260 261 263 266 272 272 278 279 282 289 290 289 293 301 302 301 302 302 301 298 299 292 286 316 315 318 306 301 300 311 329 296 287 274 266 267 268 270 274 272 273
217 204 197 191 192 194 194 191 186 191 189 187 185 185 182 183 182 180 180 185 184 179 180 173 163 170 175 176 201 220 232 235 230 230 221 227 235 231 233 235 248 257 259 255 256 259 260 260 265 273 274 278 281 282 286 288 291 286 291 290 288 295 300 298 293 278 270 254 266 303 307 286 277 303 333 297 279 260 262 269 270 274 276 276 275
213 200 194 193 195 196 194 191 192 194 194 190 183 183 174 179 178 179 181 183 183 179 180 178 178 183 179 188 195 201 210 204 213 216 204 212 226 231 240 241 247 253 254 258 255 259 261 263 266 271 277 278 282 287 287 288 285 287 287 288 286 282 288 298 293 280 263 254 246 245 251 273 302 306 319 299 313 270 274 265 266 269 269 271 270
217 210 191 193 196 195 196 195 195 195 197 181 177 180 178 180 178 179 181 181 181 180 179 179 182 189 195 200 208 211 216 215 218 226 232 241 252 258 261 260 255 259 262 260 262 264 269 268 268 271 279 284 287 288 288 286 285 283 279 274 276 283 281 283 287 293 289 256 245 246 250 256 263 281 288 304 300 304 265 278 280 275 278 277 273
200 202 201 199 194 195 198 197 193 197 186 176 176 180 182 181 177 181 181 180 176 176 179 183 185 189 192 200 210 219 221 224 211 229 240 257 258 263 272 269 266 261 267 269 267 267 267 268 266 271 278 281 284 279 277 278 278 273 267 265 267 262 262 266 282 283 279 284 262 259 255 255 254 256 258 267 283 294 297 289 269 275 277 266 269
200 198 203 199 200 201 199 196 196 187 183 178 179 181 180 179 178 179 182 181 178 179 180 185 189 188 191 196 208 218 221 228 227 231 243 241 252 259 262 269 267 260 255 260 257 258 258 261 264 269 272 275 271 273 273 271 271 272 270 266 263 265 259 263 269 271 270 271 276 266 263 260 260 255 256 255 260 283 285 286 289 291 278 272 271
206 211 206 204 203 201 198 192 185 187 181 175 176 175 177 174 179 179 184 182 178 180 182 185 189 187 194 201 204 209 210 217 220 226 228 235 246 248 254 259 258 260 256 253 255 255 258 263 268 269 270 272 271 272 275 274 272 269 266 265 266 264 261 259 257 264 267 267 262 269 267 265 261 259 251 250 257 251 265 286 289 288 289 280 273
204 208 210 208 199 194 184 189 186 178 171 174 179 181 179 179 180 182 183 181 179 181 183 186 188 192 198 200 203 209 211 216 220 222 225 231 243 250 253 260 264 267 270 266 259 260 262 266 270 273 278 274 273 275 274 276 275 275 275 269 264 260 262 262 262 261 262 263 260 257 257 254 255 258 259 254 254 259 264 268 277 278 274 282 275
195 196 204 195 185 188 183 192 188 183 172 184 185 181 182 181 179 181 181 183 178 180 183 187 187 193 199 199 204 209 208 211 219 225 223 231 243 256 258 263 264 264 263 266 261 260 269 272 275 277 277 276 276 279 281 278 278 279 275 269 266 261 259 259 258 260 257 260 258 254 254 254 254 252 256 257 255 259 261 270 273 284 282 267 273
186 192 190 191 193 189 192 194 184 181 186 187 185 182 181 181 181 181 185 181 177 179 183 186 187 192 195 198 205 206 211 215 220 226 225 231 235 239 247 254 259 258 255 260 263 262 270 271 274 277 282 280 282 284 281 278 276 273 272 269 264 262 259 256 257 256 257 257 260 257 256 254 253 253 255 253 254 259 261 265 265 269 273 283 277
186 189 194 193 192 190 190 189 188 186 186 186 184 182 180 181 183 185 183 177 177 179 183 184 189 191 192 195 199 203 209 212 220 223 224 229 236 243 247 253 261 262 271 267 270 271 270 271 276 278 281 283 282 281 279 278 275 273 271 269 267 263 261 258 258 259 258 258 258 261 258 257 257 255 254 253 253 256 256 257 270 269 267 273 281
193 199 201 197 193 188 185 189 188 186 184 182 185 184 179 184 184 185 178 180 178 178 180 183 186 189 189 193 196 201 206 210 217 221 224 228 235 243 250 254 256 264 268 273 276 273 276 280 282 287 289 286 284 282 279 275 273 274 271 269 267 263 262 260 258 259 258 257 257 256 261 260 258 255 252 252 255 256 258 260 264 270 270 267 272
202 212 212 206 195 189 187 190 190 184 185 185 185 182 183 187 184 184 180 174 174 176 180 182 183 182 185 190 195 199 205 211 217 216 224 227 237 245 252 254 257 262 265 266 267 269 277 282 286 282 285 282 280 277 276 274 274 273 271 267 266 262 262 261 260 261 260 259 259 257 258 259 261 260 261 262 263 262 263 267 257 258 263 274 272
203 211 212 200 193 195 194 192 188 185 185 190 190 186 185 180 179 181 176 168 175 178 177 179 178 177 184 187 191 196 203 209 215 220 224 233 239 244 247 253 260 259 260 262 265 268 278 283 287 284 281 277 274 274 272 273 274 273 270 269 267 267 266 264 263 262 263 264 263 262 264 265 264 267 267 263 262 257 258 255 253 251 254 258 271
206 215 211 203 200 200 199 198 195 191 192 192 192 186 184 181 176 176 169 171 176 174 175 175 174 178 180 184 190 195 201 209 219 226 229 233 236 239 244 250 250 256 261 261 262 276 284 285 281 280 278 274 272 274 276 276 275 272 269 269 269 270 269 267 264 264 265 268 267 266 273 267 270 268 264 262 260 255 256 254 255 253 252 255 263
209 214 211 205 204 203 200 201 198 197 194 192 186 177 176 175 178 177 174 171 169 169 171 171 172 171 175 180 183 190 198 207 217 223 230 237 240 243 248 255 262 259 259 263 272 284 286 285 283 282 281 278 278 279 280 278 275 273 271 271 270 269 269 270 269 267 272 273 271 270 268 264 264 265 265 263 259 257 256 255 255 253 253 252 258
215 208 208 211 211 207 202 198 194 193 188 182 178 171 180 177 172 172 164 163 165 168 168 168 170 167 165 166 178 187 195 206 214 218 229 235 241 246 253 258 260 267 265 270 276 288 290 286 283 285 285 285 283 282 278 277 275 271 272 271 271 271 272 271 272 268 271 271 272 267 265 263 264 265 264 261 260 258 256 255 254 255 254 252 256
217 215 215 213 208 204 204 199 194 187 181 173 175 179 180 172 175 172 168 167 168 168 167 168 163 167 164 172 179 183 196 204 213 222 232 240 244 248 253 259 272 266 273 284 288 295 292 285 285 283 281 283 283 280 277 274 272 272 270 271 275 274 273 272 272 274 273 274 272 267 265 265 264 263 263 263 261 260 257 256 254 254 254 251 250
228 223 216 210 203 200 193 186 179 180 184 183 179 174 177 177 178 170 167 168 167 166 169 160 160 161 167 173 180 185 193 205 212 219 232 235 243 247 251 263 265 269 281 294 293 295 289 287 286 284 281 281 279 277 277 275 275 275 274 274 275 277 276 274 274 276 281 276 274 269 267 268 266 264 264 264 263 263 259 255 253 253 259 260 250
226 222 222 218 202 194 190 187 188 190 185 182 176 181 181 179 173 172 169 170 164 160 158 156 157 160 168 171 176 186 192 203 214 224 226 233 242 250 252 263 270 280 292 292 291 292 290 286 285 285 282 281 278 280 279 276 274 274 276 277 278 280 278 275 277 281 281 279 272 270 270 270 267 266 265 263 263 264 262 258 256 257 256 256 259
242 225 220 211 195 185 183 188 191 190 184 184 182 180 176 177 175 170 170 160 157 153 154 154 157 161 165 171 180 185 194 204 213 219 222 232 244 254 263 266 277 288 292 293 291 287 289 287 286 285 281 283 282 282 284 280 278 279 280 281 280 278 275 275 279 283 281 276 274 272 270 271 269 266 264 264 262 262 263 262 260 258 258 257 255
234 228 215 194 196 197 200 196 192 191 187 184 182 183 179 177 172 170 164 156 152 152 154 157 161 161 167 175 182 185 193 201 209 217 225 238 247 257 264 271 279 287 289 293 290 288 287 288 285 285 285 283 284 284 284 284 282 282 280 282 280 280 280 281 281 282 275 273 272 270 271 268 267 266 263 262 262 263 261 261 262 263 262 264 264
225 213 194 208 208 203 199 195 193 192 188 184 183 181 178 173 171 164 154 154 154 152 155 155 158 164 170 177 181 186 192 198 206 217 227 237 249 261 270 276 280 284 293 288 288 289 286 285 285 284 285 286 286 284 286 286 287 286 285 283 282 282 286 283 277 273 271 272 270 269 269 268 265 263 263 263 263 266 266 263 262 263 262 261 262
218 209 211 214 208 208 206 198 196 190 186 184 182 178 173 168 163 159 154 152 153 151 153 154 159 167 171 178 179 184 188 193 201 214 221 238 251 263 269 274 284 288 289 287 287 286 285 285 285 284 282 286 286 286 287 289 291 291 289 286 287 290 287 281 279 274 270 265 269 265 263 261 262 259 260 259 260 261 267 263 262 264 264 263 262
221 219 214 214 213 209 206 202 193 192 183 182 181 176 172 168 163 158 155 151 149 150 151 156 161 169 174 173 178 182 185 190 197 206 221 235 251 254 263 273 275 281 281 282 285 286 286 282 283 283 284 285 287 288 288 288 291 293 294 294 291 287 284 283 281 279 275 271 266 264 260 258 256 257 253 259 254 257 262 267 263 264 266 264 262
218 220 218 214 210 207 203 196 194 184 184 180 174 171 165 161 156 155 153 150 147 148 151 158 165 171 174 173 172 173 174 184 195 205 222 233 243 254 258 267 274 277 278 279 281 282 283 281 280 282 286 287 287 286 288 289 294 296 295 292 291 287 286 287 284 278 276 268 273 266 266 260 253 253 248 251 256 253 255 263 261 260 260 259 257
212 218 216 215 215 209 196 191 189 188 184 179 177 174 171 164 160 156 152 151 149 152 155 160 167 173 169 167 169 166 175 182 190 208 216 230 239 246 254 265 272 274 278 282 281 279 279 282 285 287 289 289 286 282 281 286 293 295 297 297 294 291 287 278 277 273 270 269 262 271 261 269 260 257 252 253 254 260 257 256 262 260 258 261 260
220 223 216 217 215 204 190 190 195 189 184 182 177 173 165 158 155 154 153 153 152 151 156 164 171 168 163 160 165 170 177 184 195 203 215 230 241 244 261 273 275 277 277 280 278 280 281 284 288 290 292 289 287 284 287 292 296 299 299 297 295 291 284 285 278 278 278 277 271 271 269 271 267 269 260 255 252 256 263 258 260 260 258 259 258
233 221 217 214 207 200 196 198 196 189 182 175 171 168 162 162 157 156 151 150 151 152 159 166 163 158 161 163 166 167 175 189 191 208 221 230 241 249 262 271 276 276 276 277 279 281 286 290 292 293 291 291 290 288 292 298 300 300 300 299 295 292 293 287 289 283 285 282 284 281 280 276 273 270 265 259 254 255 259 263 259 263 263 260 259
257 229 214 208 205 200 198 199 190 184 182 181 168 158 168 162 157 153 143 150 151 155 159 158 156 157 157 162 165 168 179 187 197 208 227 230 234 248 263 267 267 272 279 277 279 287 287 291 291 293 294 294 292 292 297 301 303 303 303 303 297 296 293 295 291 292 289 288 286 284 282 276 274 273 271 266 263 257 259 261 263 259 264 262 262
247 228 217 203 199 198 198 193 188 185 178 166 162 163 157 146 142 139 147 151 151 154 155 152 153 159 161 159 167 166 181 186 191 211 224 228 228 250 262 266 270 273 272 276 279 282 287 293 297 297 296 296 295 294 299 303 304 305 306 305 302 299 297 294 294 292 291 288 286 285 284 281 278 277 274 271 270 265 266 264 264 261 260 259 259
255 225 212 202 196 198 192 184 176 160 151 145 149 145 134 135 141 144 149 145 147 147 150 154 157 159 158 161 166 171 179 184 197 209 218 220 223 256 259 262 267 266 271 276 281 287 291 295 296 298 297 298 293 298 302 303 305 306 307 309 304 300 298 296 295 292 289 287 285 282 281 280 279 276 272 272 272 269 267 265 261 257 254 256 258
239 219 216 198 195 192 188 187 159 144 152 155 156 147 140 141 138 140 140 140 142 147 151 154 157 161 164 167 167 172 176 186 199 207 208 206 219 244 252 263 268 274 274 277 281 285 291 297 297 299 297 293 294 299 302 304 307 309 310 309 304 300 298 294 295 294 290 287 285 282 281 279 277 276 274 273 273 272 267 262 257 252 253 253 254
251 218 222 198 187 186 176 147 149 154 150 158 145 137 133 132 138 138 135 141 148 153 160 160 162 164 167 167 167 169 177 189 199 202 191 182 226 246 253 253 268 275 279 282 285 288 289 294 297 288 290 289 289 296 302 305 307 311 312 308 305 300 299 296 290 293 293 289 286 282 279 280 278 276 275 275 274 273 269 265 263 255 245 247 250
238 199 203 181 169 142 137 146 146 151 153 138 134 135 134 138 142 145 148 153 159 164 161 161 165 165 164 160 167 171 179 190 193 192 164 179 235 252 241 251 264 279 284 285 292 293 292 293 288 285 282 287 292 299 305 307 310 311 314 312 306 304 296 288 289 289 291 290 287 286 283 281 279 277 276 274 273 272 269 265 263 258 251 246 252
210 193 183 175 165 154 146 142 149 150 149 139 141 138 140 146 149 153 156 156 168 164 166 168 163 156 156 159 167 174 183 187 187 173 156 201 236 236 245 258 259 271 275 282 294 298 300 296 281 276 285 294 294 299 305 308 311 313 315 311 310 304 293 294 298 298 296 292 291 289 286 283 281 279 278 277 275 272 264 260 258 253 248 247 254
175 185 169 146 126 121 146 156 165 163 146 147 146 148 146 146 152 152 159 169 170 167 156 146 144 148 152 157 168 177 185 188 178 153 164 213 237 239 243 265 278 268 279 293 299 296 294 292 291 292 294 294 298 300 305 311 315 317 318 316 310 308 305 305 305 302 302 299 295 293 291 287 285 283 281 280 277 275 273 264 252 247 240 247 250
166 163 148 148 165 165 170 173 161 145 148 148 148 145 151 148 149 158 172 168 150 139 142 144 142 144 150 160 167 180 190 188 168 151 169 211 227 235 264 271 272 279 291 303 298 298 296 293 297 298 295 296 300 306 309 314 317 319 320 322 317 313 310 308 307 307 304 302 300 297 294 291 289 287 285 283 281 278 274 272 263 239 235 240 238
138 140 151 143 145 123 113 112 130 144 146 149 148 145 143 148 153 168 164 139 134 141 140 140 144 147 154 162 169 177 188 178 164 150 180 211 208 218 256 259 279 300 307 310 309 300 303 302 303 302 299 303 306 308 312 314 315 316 318 319 318 315 317 315 312 307 304 302 300 299 298 294 292 289 286 283 281 278 274 272 267 266 253 242 239
154 160 175 148 152 162 162 149 145 146 152 158 144 141 146 151 163 162 140 137 139 137 139 140 141 145 153 162 168 178 178 168 155 162 191 217 200 202 235 240 263 305 308 320 316 310 310 307 305 308 310 309 312 310 313 315 317 323 324 325 323 321 321 320 313 307 307 304 302 300 298 296 295 292 287 281 276 273 274 271 270 266 259 248 243
195 159 161 165 146 143 136 139 151 153 154 164 160 147 152 157 159 133 132 131 132 136 138 136 139 143 150 162 172 177 170 157 151 167 195 199 194 207 231 230 332 321 327 325 320 315 313 306 314 315 314 317 317 314 314 322 324 325 326 325 326 325 325 322 316 309 307 304 304 304 303 304 304 303 298 288 277 268 263 266 267 269 262 250 243
171 176 168 164 159 158 147 148 160 163 167 167 173 148 154 152 144 136 143 141 138 137 136 136 141 146 155 160 167 167 162 147 156 178 195 180 189 187 165 91 333 329 336 325 317 312 307 317 319 320 319 320 320 317 314 312 319 325 328 328 328 328 327 326 319 311 306 307 314 313 310 309 308 310 312 302 280 266 262 263 264 264 256 240 244
147 158 172 159 128 122 139 151 161 168 167 171 179 161 152 146 131 139 140 136 135 135 135 136 139 148 156 159 158 155 151 143 168 181 193 176 149 161 114 18 336 336 336 322 309 300 314 320 318 320 321 319 321 320 319 317 315 327 330 331 332 331 328 326 322 316 316 320 318 313 313 312 314 317 321 309 274 274 261 260 259 256 242 239 235
184 172 143 152 155 152 160 157 160 172 167 169 160 169 127 126 140 140 137 133 131 132 132 137 146 148 156 166 160 156 152 155 174 185 183 165 161 153 157 191 221 343 328 310 299 316 321 321 322 321 320 320 321 321 324 327 331 332 333 334 336 333 330 328 327 324 326 324 317 316 314 315 315 320 325 336 333 280 269 267 253 243 239 238 236
168 154 165 149 160 164 164 162 164 168 165 156 152 146 132 130 135 135 130 132 134 143 141 148 150 151 161 165 155 150 150 146 164 180 165 163 161 169 173 184 113 334 308 306 317 321 323 324 321 320 318 320 319 324 331 335 339 339 337 337 337 336 334 332 331 331 332 322 319 316 320 322 324 331 339 341 346 345 324 284 250 232 230 226 233
165 179 167 176 174 168 167 163 158 149 145 149 148 136 141 146 139 134 141 137 135 131 127 136 145 149 150 150 145 154 147 141 150 155 165 170 167 173 182 192 222 233 284 308 313 318 322 323 323 321 324 321 323 327 331 337 338 339 341 341 340 339 336 336 337 339 331 319 324 328 328 333 340 342 343 342 345 343 345 346 336 307 262 241 230
180 162 182 158 154 157 158 159 148 151 156 154 147 143 145 144 137 145 146 133 132 132 137 145 156 153 142 144 142 142 142 142 143 138 140 216 236 221 219 214 320 335 329 325 323 322 326 328 322 320 326 324 325 327 333 338 340 342 343 345 343 340 340 342 343 342 339 334 336 334 340 341 341 346 345 345 342 342 344 340 334 336 333 314 270
165 159 171 179 180 165 154 156 164 162 156 146 139 141 141 138 147 154 150 136 134 135 136 140 153 154 151 140 141 134 139 132 134 138 145 148 116 270 236 224 232 327 331 331 337 336 337 336 334 327 326 330 330 336 340 340 342 343 345 346 347 344 343 347 348 346 345 349 346 341 338 341 342 341 345 343 338 339 340 334 333 330 323 328 333